Notices

What's New in latest Release from April 7th, 2021:

- Updated Glossary, including Speed of Maximum Gust, and Total Hourly Precipitation

- Updated national and regional climate services offices contacts and prices information

- Addition of station inventory lists for 1981-2010, 1971-2000, and 1961-1990 Normals.

If you haven't already, please take our survey and provide feedback about our website: https://eccc.sondage-survey.ca/f/LanguageSelection.aspx?s=442ca660-fcf1-47c0-95a9-59707d6fd709

Hourly Data Report for December 31, 2019

EUREKA CLIMATE
NUNAVUT
Current Station Operator: ECCC - MSC

79°59'21.000" N
85°56'02.000" W
10.00 m
2401199
71613
NEK

Download Data

Hourly Data (December 2019)
Hourly Data Report for December 31, 2019
TIME
LST
Temp Definition
°C
Dew Point Definition
°C
Rel Hum Definition
%
Precip. Amount Definition
mm

Wind Dir Definition
10's deg

Wind Spd Definition
km/h
Visibility Definition
km
Stn Press Definition
kPa
Hmdx Definition


Wind Chill Definition


Weather Definition


00:00 -35.0 -38.5 71 0.0 1 7   99.81   -43 LegendNANA
01:00 -36.1 -39.6 70 0.2 1 7   99.83   -44 LegendNANA
02:00 -38.1 -41.9 68 0.0 3 12   99.91   -50 LegendNANA
03:00 -35.8 -39.3 70 0.0 1 9   99.96   -45 LegendNANA
04:00 -35.0 -38.4 71 0.0 11 3   100.00   -39 LegendNANA
05:00 -35.5 -39.0 70 0.0 12 10   100.04   -46 LegendNANA
06:00 -35.8 -39.2 70 0.0 8 6   100.09   -43 LegendNANA
07:00 -36.2 -39.8 70 0.0 11 8   100.12   -45 LegendNANA
08:00 -36.8 -40.4 69 0.0 11 12   100.18   -48 LegendNANA
09:00 -37.6 -41.3 68 0.0 12 9   100.25   -48 LegendNANA
10:00 -38.5 -42.4 67 0.0 10 18   100.31   -53 LegendNANA
11:00 -38.3 -42.1 68 0.0 11 12   100.38   -50 LegendNANA
12:00 -38.7 -42.6 67 0.0 10 19   100.44   -54 LegendNANA
13:00 -38.6 -42.4 67 0.0 12 14   100.51   -52 LegendNANA
14:00 -39.3 -43.3 66 0.0 11 18   100.60   -54 LegendNANA
15:00 -39.5 -43.5 66 0.0 11 19   100.68   -55 LegendNANA
16:00 -39.7 -43.7 65 0.0 11 20   100.75   -55 LegendNANA
17:00 -39.8 -43.8 65 0.0 11 20   100.78   -55 LegendNANA
18:00 -39.8 -43.8 65 0.0 11 19   100.79   -55 LegendNANA
19:00 -40.1 -44.1 65 0.0 11 17   100.85   -55 LegendNANA
20:00 -41.0 -45.2 64 0.0 9 11   100.86   -53 LegendNANA
21:00 -42.4 -46.7 63 0.0 5 10   100.88   -54 LegendNANA
22:00 -43.1 -47.5 62 0.0 5 8   100.89   -53 LegendNANA
23:00 -43.7 -48.2 61 0.0 3 9   100.92   -55 LegendNANA

Notes on Data Quality.

Legend

  • E = Estimated
  • M = Missing
  • NA = Not Available*
  • [empty] = Indicates an unobserved value
Date modified: